Regional Weather Roundup
Issued by NWS

Home | Current Version | Previous Version | Text Only | Print | Product List | Glossary On
Versions: 1 2 3 4 5 6 7 8 9 10 11 12 13 14 15 16 17 18 19 20 21 22 23 24 25 26 27 28 29 30 31 32 33 34 35 36 37 38 39 40 41 42 43 44 45 46 47 48 49
000
ASUS43 KMPX 041310
RWRMN
WEATHER ROUNDUP FOR MINNESOTA
NATIONAL WEATHER SERVICE TWIN CITIES/CHANHASSEN MN
800 AM CDT FRI SEP 04 2015


NOTE: "FAIR" INDICATES FEW OR NO CLOUDS BELOW 12,000 FEET WITH NO
SIGNIFICANT WEATHER AND/OR OBSTRUCTIONS TO VISIBILITY. N/A MEANS
CURRENT SKY AND/OR WEATHER CONDITIONS ARE NOT AVAILABLE.

MNZ060>063-068>070-041400-
   Twin Cities Metro

CITY           SKY/WX    TMP DP  RH WIND       PRES   REMARKS
TWIN CITIES    CLOUDY    71  68  90 SE10      29.93S FOG
ST PAUL        PTSUNNY   70  67  90 SE10      29.94S
CRYSTAL        CLOUDY    73  68  84 SE8       29.91S
BLAINE         MOSUNNY   72  70  94 SE9       29.93S
LAKEVILLE      CLOUDY    70  70 100 E5        29.94R FOG
EDEN PRAIRIE   CLOUDY    73  70  90 E8        29.92R
SOUTH ST PAUL  MOSUNNY   72  67  87 SE6       29.94R
LAKE ELMO      FAIR      70  66  88 SE7       29.96S
$$
MNZ001>005-007-008-013>017-022>024-027-028-041400-
   Northwest Minnesota

CITY           SKY/WX    TMP DP  RH WIND       PRES   REMARKS
BEMIDJI        CLOUDY    66  65  94 SE13      29.89F
HALLOCK        MOSUNNY   72  70  94 CALM      29.78S
ROSEAU         CLOUDY    70  64  83 SE9       29.84R
WARROAD        CLOUDY    70  64  83 SE7       29.86R
THIEF RVR FALL PTSUNNY   70  70 100 SE10      29.82S
CROOKSTON      MOSUNNY   73  70  88 SE14      29.79S
FOSSTON        MOSUNNY   70  64  83 SE12G18   29.84F
DETROIT LAKES  CLOUDY    72  70  94 SE12G22   29.86R FOG
MOORHEAD       SUNNY     73  72  94 SE10      29.78F
PARK RAPIDS    CLOUDY    69  66  90 SE10      29.88F FOG
MAHNOMEN       CLOUDY    71  69  93 SE14      29.83S
$$
MNZ006-009>011-018-025>026-041400-
   North Central Minnesota

CITY           SKY/WX    TMP DP  RH WIND       PRES   REMARKS
BAUDETTE       PTSUNNY   63  58  83 SE12      29.89S
FLAG ISLAND    CLOUDY    68  63  83 E6        29.88S
INTL FALLS     MOSUNNY   62  59  90 SE7       29.94S
WASKISH        PTSUNNY   63  61  94 E5        29.89F
BIG FORK       PTSUNNY   66  61  82 SE7       29.95S
LONGVILLE      MOSUNNY   64  63  94 E6        29.92S
GRAND RAPIDS     N/A     64  59  82 SE9       29.95S
CRANE LAKE     SUNNY     59  57  94 SE5       29.99S
ORR            MOSUNNY   63  57  82 SE7       29.95S
COOK           MOSUNNY   64  61  88 SE5       29.98F
WALKER         CLOUDY    67  65  94 SE7       29.90F
$$
MNZ012-019>021-037-041400-
   Northeast Minnesota

CITY           SKY/WX    TMP DP  RH WIND       PRES   REMARKS
DULUTH         MOSUNNY   62  60  93 E10       30.01R
ELY            SUNNY     55  54  94 CALM      30.01F
HIBBING        CLOUDY    65  62  90 SE9       29.99S
EVELETH        PTSUNNY   63  61  94 SE3       30.00F
DULUTH HARBOR  CLOUDY    61  57  88 E9        30.01S
TWO HARBORS    SUNNY     64  61  88 NE6       30.01S
SILVER BAY     SUNNY     63  61  94 CALM      30.02S
GRAND MARAIS     N/A     63  57  81 E6        30.04S
G MARAIS ARPRT SUNNY     63  55  77 CALM      30.08S
$$
MNZ029>031-032-039>041-046>048-054>057-064-041400-
   West Central Minnesota

CITY           SKY/WX    TMP DP  RH WIND       PRES   REMARKS
FERGUS FALLS   SUNNY     73  73 100 SE12      29.79F
WHEATON        SUNNY     72  70  94 SE13      29.80R
MORRIS         SUNNY     73  72  94 SE13G20   29.81S
ALEXANDRIA     CLOUDY    73  71  93 SE13      29.87F
ELBOW LAKE     FAIR      73  71  92 SE10G17   29.81F
WADENA         CLOUDY    70  68  94 SE13G20   29.88R FOG
GLENWOOD       MOSUNNY   72  72 100 E12       29.87F FOG
APPLETON       SUNNY     75  70  83 SE10      29.81R
BENSON         SUNNY     75  68  78 S9G17     29.83S
ORTONVILLE     SUNNY     72  70  94 SE9       29.80R
MADISON        SUNNY     72  70  94 SE10      29.81R
WILLMAR        FAIR      73  72  94 SE10      29.88R
$$
MNZ033>034-036-042>043-049>051-058-059-041400-
   Central Minnesota

CITY           SKY/WX    TMP DP  RH WIND       PRES   REMARKS
ST CLOUD       CLOUDY    70  68  93 SE9       29.91R
SAUK CENTRE    CLOUDY    72  70  95 SE8       29.89S
PAYNESVILLE    MOSUNNY   73  71  95 E13       29.89S
AITKIN         MOSUNNY   68  63  83 E3        29.93S
PINE RIVER     CLOUDY    66  66 100 SE7       29.95S
BRAINERD       SUNNY     67  65  93 SE9       29.92S
STAPLES        CLOUDY    70  66  88 SE8       29.89S FOG
LONG PRAIRIE   CLOUDY    70  68  94 E7        29.90R FOG
LITTLE FALLS   CLOUDY    68  64  88 SE9       29.90S
LITCHFIELD     SUNNY     73  73 100 SE9       29.89S
BUFFALO        SUNNY     71  68  91 E6        29.92S
MAPLE LAKE     MOSUNNY   72  71  96 SE7       29.92R
$$
MNZ037-044-045-052-053-041400-
   East Central Minnesota

CITY           SKY/WX    TMP DP  RH WIND       PRES   REMARKS
PRINCETON      SUNNY     72  66  83 E8        29.93R
MORA           SUNNY     64  63  94 E5        29.96S
CAMBRIDGE      SUNNY     72  61  68 SE6       29.92S
RUSH CITY      SUNNY     69  65  85 SE7       29.95S
MOOSE LAKE     CLOUDY    61  59  94 NE3       29.96S
HINCKLEY       FAIR      68  66  94 E6        29.96S
CLOQUET        CLOUDY    61  59  94 E7        30.00S
MCGREGOR       CLOUDY    64  63  94 E8        29.96S
$$
MNZ071>073-080-081-089-090-097-098-041400-
   Southwest Minnesota

CITY           SKY/WX    TMP DP  RH WIND       PRES   REMARKS
MONTEVIDEO     SUNNY     73  72  94 S9        29.85R
GRANITE FALLS  SUNNY     72  69  91 SE10      29.86R
CANBY          MOSUNNY   72  69  90 S8        29.82S
MARSHALL       SUNNY     73  64  73 S14       29.85R
REDWOOD FALLS  SUNNY     73  70  90 SE10      29.87R
OLIVIA         SUNNY     70  66  88 SE8       29.86R
PIPESTONE      PTSUNNY   72  66  83 S9        29.87R
WINDOM         SUNNY     73  66  78 S10G16    29.90R
WORTHINGTON    MOSUNNY   72  64  78 S15       29.90R
JACKSON        SUNNY     72  68  88 S9        29.92R
TRACY          SUNNY     73  69  87 S13G18    29.87R
SLAYTON        MOSUNNY   69  69  99 CALM      29.89S
$$
MNZ065>067-074>077-082>085-091>093-041400-
   South Central Minnesota

CITY           SKY/WX    TMP DP  RH WIND       PRES   REMARKS
MANKATO        SUNNY     73  70  88 S9        29.91R
NEW ULM        SUNNY     72  70  94 S10       29.88S
ST JAMES       SUNNY     73  70  88 SE9       29.91R
FAIRMONT       SUNNY     72  64  78 S8        29.91R
GLENCOE        SUNNY     74  73  97 E7        29.90S
FARIBAULT      SUNNY     73  72  94 SE8       29.94R
OWATONNA       SUNNY     73  68  83 SE8       29.95R
WASECA         SUNNY     72  70  94 SE7       29.95R
ALBERT LEA     SUNNY     73  70  88 SE5       29.95R
$$
MNZ078>079-086>088-094>096-041400-
   Southeast Minnesota

CITY           SKY/WX    TMP DP  RH WIND       PRES   REMARKS
ROCHESTER      FOG       70  70 100 SE13      29.98R VSB 1/2
RED WING       SUNNY     73  66  78 SE12      29.95R
STANTON        CLOUDY    73  70  91 CALM      29.93S FOG
DODGE CENTER   CLOUDY    72  70  94 SE9       29.97R FOG
WINONA         SUNNY     72  66  83 SE7       29.99R
AUSTIN         SUNNY     72  70  94 SE6       29.97R
PRESTON        CLOUDY    68  66  91 SE6       30.00R
$$
ABBREVIATIONS USED IN REMARKS
   TC - TEMPERATURES IN CELSIUS
  WCI - WIND CHILL INDEX
   HX - HEAT INDEX
  VSB - VISIBILITY
$$



USA.gov is the U.S. government's official web portal to all federal, state and local government web resources and services.